STARLINK-1091, 44940

Orbit data source: Space-Track

STARLINK-1091, 44940 is a payload satellite owned by SpaceX/Seattle (US) in LEO that was launched on Tue, 07 Jan 2020 UTC via an FALCON 9 launch vehicle from the Air Force Eastern Test Range (AFETR). Payload-class satellites include a variety of spacecraft equipped with specific instruments for various scientific and technological missions. These include communications satellites like Starlink; space stations such as the ISS; scientific satellites like the Hubble; Earth observation satellites from companies like Planet Labs, Umbra, and HawkEye 360; GPS; miniature CubeSats for education and research; and military/defense satellites.

Loading next visibility...
Identifier
44940, 2020-001AC
Orbit
LEO
Last TLE update
9 hours ago
Origin
Manufacturer
SpaceX/Seattle
Mission
Partially operational Commercial Communications
Bus & Motor
STARLINK, Unknown motor
Mass
260 kg wet, ~248 kg dry
Launch date (UTC)
2020-01-07 (5 years ago)
Launch vehicle
FALCON 9
Launch site
Air Force Eastern Test Range (AFETR)
Object type
Payload
Rocket body
Debris
Shape & HBR
Box + 1 Pan, 8.86 m
Radar Cross Section
13.562 m², Large (>1 m²)

Expand to show TLE details & history

TLE from 9 hours ago
0 STARLINK-1091
1 44940U 20001AC  25181.91668981  .00182633  00000-0  25772-2 0  9997
2 44940  53.0500   4.5115 0006595 223.7545 243.4560 15.55448804  5963
Epoch: 2025-06-30T22:00Z
TLE epoch observation values (Epoch: 2025-06-30T22:00:01.999Z)
Latitude
49.93823°
Longitude
-127.52343°
Altitude
408.632 km
Speed
7.671 km/s
True Right ascension
08h 06m 49s
True Declination
49° 45' 36"
Sunlit
Object was in daylight at epoch
Visualization orbit readout
Latitude
48.549°
Longitude
171.32754°
Altitude
409.977 km
Speed
7.669 km/s
Apparent Right ascension
05h 26m 19s
Apparent Declination
6° 25' 30"
Sunlit
Object is in daylight
Visualization observer readout
Local Sidereal Time
18:43:19
Azimuth
25.471° NE
Elevation
-40.372°
Doppler factor
1
Orbital elements
Apogee altitude
405.596 km
Perigee altitude
396.655 km
Semi-major axis
6,779.262 km
Eccentricity
0.00066
Inclination
53.05°
RAAN
4.5115°
Arg. of periapsis
223.7545°
True anomaly
Unknown
Mean anomaly
243.456°
Eccentric anomaly
Unknown
Mean motion
3.88839 °/min
Orbital period
92.58 mins
BSTAR
0.0025772
Loading maneuver chart data...
Loading SW <> Apogee altitude chart data...

STARLINK-1091 Visibility forecast

Observer location: undefined°, undefined°

Span
Click to sort rows by Start time (UTC) header in descending order
Start Az.
Max El. time (UTC)
Max El. Az.
Max El.
End time (UTC)
End Az.
5 mins2025-07-01 14:40:25.897Z214.728° SW2025-07-01 14:43:25.897Z117.304° SE39.493°2025-07-01 14:45:25.897Z61.827° ENE
5 mins2025-07-01 21:09:25.897Z329.284° NNW2025-07-01 21:11:25.897Z30.571° NE33.87°2025-07-01 21:14:25.897Z107.259° ESE
|